• In Hungary
  • List of Countries
  • For 7 days
  • Water Temperature
  • Satellite Maps
  • Weather Map
  • News
  • Weather Widgets
  • user-avatar
    Login

    Hourly Weather Pervoe Maya

    Today, 24 May, Thursday

    Time Temperature Precipitation Wind Pressure Humidity
    00:00 +19°C° 0.6 mm 1 mps 753 mmHg 91%
    01:00 +19°C° 0.9 mm 1 mps 753 mmHg 92%
    02:00 +18°C° 0.9 mm 2 mps 752 mmHg 93%
    03:00 +18°C° 0.9 mm 2 mps 752 mmHg 94%
    04:00 +17°C° 0.9 mm 2 mps 752 mmHg 94%
    05:00 +17°C° 0.9 mm 2 mps 751 mmHg 94%
    06:00 +17°C° 0.9 mm 2 mps 751 mmHg 94%
    07:00 +17°C° 1.2 mm 2 mps 751 mmHg 93%
    08:00 +18°C° 1.2 mm 3 mps 751 mmHg 92%
    09:00 +18°C° 1.2 mm 3 mps 751 mmHg 91%
    10:00 +18°C° 0.5 mm 3 mps 751 mmHg 90%
    11:00 +19°C° 0.5 mm 4 mps 751 mmHg 89%
    12:00 +19°C° 0.5 mm 4 mps 751 mmHg 87%
    13:00 +19°C° 0.1 mm 5 mps 750 mmHg 85%
    14:00 +20°C° 0.1 mm 5 mps 750 mmHg 83%
    15:00 +21°C° 0.1 mm 5 mps 750 mmHg 81%
    16:00 +20°C° 0.1 mm 5 mps 750 mmHg 82%
    17:00 +20°C° 0.1 mm 5 mps 750 mmHg 83%
    18:00 +20°C° 0.1 mm 5 mps 749 mmHg 84%
    19:00 +19°C° 0.1 mm 5 mps 749 mmHg 87%
    20:00 +17°C° 0.1 mm 5 mps 750 mmHg 89%
    21:00 +17°C° 0.1 mm 5 mps 750 mmHg 92%
    22:00 +16°C° 0 mm 5 mps 749 mmHg 92%
    23:00 +16°C° 0 mm 5 mps 749 mmHg 91%

    Tomorrow, 25 May, Friday

    Time Temperature Precipitation Wind Pressure Humidity
    00:00 +16°C° 0 mm 6 mps 749 mmHg 91%
    01:00 +16°C° 0.2 mm 6 mps 749 mmHg 89%
    02:00 +16°C° 0.2 mm 6 mps 750 mmHg 87%
    03:00 +15°C° 0.2 mm 6 mps 750 mmHg 85%
    04:00 +15°C° 0.4 mm 6 mps 750 mmHg 85%
    05:00 +15°C° 0.4 mm 6 mps 750 mmHg 86%
    06:00 +14°C° 0.4 mm 6 mps 750 mmHg 86%
    07:00 +15°C° 0.1 mm 7 mps 751 mmHg 83%
    08:00 +16°C° 0.1 mm 7 mps 752 mmHg 80%
    09:00 +16°C° 0.1 mm 8 mps 752 mmHg 78%
    10:00 +17°C° 0 mm 8 mps 753 mmHg 73%
    11:00 +18°C° 0 mm 8 mps 753 mmHg 67%
    12:00 +18°C° 0 mm 8 mps 753 mmHg 62%
    13:00 +18°C° 0 mm 8 mps 754 mmHg 60%
    14:00 +18°C° 0 mm 8 mps 754 mmHg 58%
    15:00 +18°C° 0 mm 8 mps 754 mmHg 56%
    16:00 +17°C° 0 mm 7 mps 755 mmHg 58%
    17:00 +17°C° 0 mm 7 mps 755 mmHg 60%
    18:00 +16°C° 0 mm 6 mps 755 mmHg 62%
    19:00 +15°C° 0 mm 6 mps 756 mmHg 63%
    20:00 +13°C° 0 mm 5 mps 757 mmHg 64%
    21:00 +12°C° 0 mm 5 mps 757 mmHg 64%
    22:00 +11°C° 0 mm 4 mps 758 mmHg 65%
    23:00 +10°C° 0 mm 4 mps 758 mmHg 65%

    Day after tomorrow, 26 May, Saturday

    Time Temperature Precipitation Wind Pressure Humidity
    00:00 +10°C° 0 mm 4 mps 759 mmHg 66%
    01:00 +8°C° 0 mm 4 mps 759 mmHg 67%
    02:00 +8°C° 0 mm 3 mps 760 mmHg 68%
    03:00 +8°C° 0 mm 3 mps 760 mmHg 69%
    04:00 +8°C° 0 mm 3 mps 761 mmHg 69%
    05:00 +8°C° 0 mm 3 mps 761 mmHg 69%
    06:00 +8°C° 0 mm 4 mps 762 mmHg 69%
    07:00 +10°C° 0 mm 4 mps 762 mmHg 64%
    08:00 +10°C° 0 mm 5 mps 762 mmHg 58%
    09:00 +13°C° 0 mm 5 mps 763 mmHg 52%
    10:00 +14°C° 0 mm 5 mps 763 mmHg 51%
    11:00 +15°C° 0 mm 5 mps 763 mmHg 49%
    12:00 +16°C° 0 mm 5 mps 763 mmHg 48%
    13:00 +16°C° 0 mm 5 mps 763 mmHg 47%
    14:00 +18°C° 0 mm 4 mps 763 mmHg 47%
    15:00 +18°C° 0 mm 4 mps 763 mmHg 47%
    16:00 +18°C° 0 mm 3 mps 763 mmHg 50%
    17:00 +18°C° 0 mm 3 mps 762 mmHg 54%
    18:00 +18°C° 0 mm 2 mps 762 mmHg 58%
    19:00 +16°C° 0 mm 2 mps 762 mmHg 61%
    20:00 +14°C° 0 mm 2 mps 763 mmHg 65%
    21:00 +12°C° 0 mm 2 mps 763 mmHg 69%
    22:00 +12°C° 0 mm 2 mps 763 mmHg 70%
    23:00 +10°C° 0 mm 2 mps 763 mmHg 72%

    27 May, Sunday

    Time Temperature Precipitation Wind Pressure Humidity
    00:00 +10°C° 0 mm 2 mps 763 mmHg 73%
    01:00 +9°C° 0 mm 2 mps 763 mmHg 74%
    02:00 +9°C° 0 mm 2 mps 763 mmHg 75%
    03:00 +8°C° 0 mm 2 mps 763 mmHg 77%
    04:00 +9°C° 0 mm 2 mps 763 mmHg 76%
    05:00 +9°C° 0 mm 2 mps 763 mmHg 76%
    06:00 +10°C° 0 mm 2 mps 763 mmHg 76%
    07:00 +13°C° 0 mm 2 mps 763 mmHg 69%
    08:00 +14°C° 0 mm 2 mps 763 mmHg 62%
    09:00 +16°C° 0 mm 2 mps 763 mmHg 55%
    10:00 +17°C° 0 mm 2 mps 762 mmHg 52%
    11:00 +18°C° 0 mm 2 mps 762 mmHg 49%
    12:00 +19°C° 0 mm 2 mps 762 mmHg 46%
    13:00 +19°C° 0 mm 2 mps 761 mmHg 45%
    14:00 +19°C° 0 mm 2 mps 761 mmHg 45%
    15:00 +20°C° 0 mm 2 mps 760 mmHg 45%
    16:00 +19°C° 0 mm 2 mps 760 mmHg 50%
    17:00 +19°C° 0 mm 2 mps 759 mmHg 54%
    18:00 +19°C° 0 mm 2 mps 759 mmHg 58%
    19:00 +17°C° 0 mm 2 mps 759 mmHg 62%
    20:00 +15°C° 0 mm 2 mps 758 mmHg 66%
    21:00 +13°C° 0 mm 2 mps 758 mmHg 70%
    22:00 +13°C° 0 mm 2 mps 758 mmHg 71%
    23:00 +12°C° 0 mm 2 mps 758 mmHg 72%

    28 May, Monday

    Time Temperature Precipitation Wind Pressure Humidity
    00:00 +12°C° 0 mm 2 mps 758 mmHg 73%
    01:00 +10°C° 0 mm 2 mps 758 mmHg 75%
    02:00 +10°C° 0 mm 2 mps 757 mmHg 76%
    03:00 +10°C° 0 mm 2 mps 757 mmHg 77%
    04:00 +10°C° 0 mm 2 mps 757 mmHg 78%
    05:00 +12°C° 0 mm 2 mps 757 mmHg 78%
    06:00 +12°C° 0 mm 3 mps 757 mmHg 78%
    07:00 +13°C° 0 mm 3 mps 757 mmHg 76%
    08:00 +16°C° 0 mm 3 mps 757 mmHg 73%
    09:00 +18°C° 0 mm 3 mps 757 mmHg 71%
    10:00 +18°C° 0 mm 3 mps 757 mmHg 71%
    11:00 +18°C° 0 mm 4 mps 757 mmHg 71%
    12:00 +19°C° 0 mm 4 mps 757 mmHg 71%
    13:00 +19°C° 0.1 mm 4 mps 757 mmHg 66%
    14:00 +20°C° 0.1 mm 5 mps 757 mmHg 62%
    15:00 +21°C° 0.1 mm 5 mps 757 mmHg 57%
    16:00 +20°C° 0 mm 5 mps 757 mmHg 59%
    17:00 +20°C° 0 mm 4 mps 757 mmHg 60%
    18:00 +19°C° 0 mm 4 mps 757 mmHg 62%
    19:00 +17°C° 0 mm 4 mps 758 mmHg 64%
    20:00 +14°C° 0 mm 3 mps 758 mmHg 66%
    21:00 +12°C° 0 mm 3 mps 758 mmHg 69%
    22:00 +11°C° 0 mm 3 mps 759 mmHg 69%
    23:00 +10°C° 0 mm 3 mps 759 mmHg 69%

    29 May, Tuesday

    Time Temperature Precipitation Wind Pressure Humidity
    00:00 +9°C° 0 mm 3 mps 759 mmHg 69%
    01:00 +9°C° 0 mm 2 mps 760 mmHg 69%
    02:00 +8°C° 0 mm 2 mps 760 mmHg 69%
    03:00 +8°C° 0 mm 2 mps 760 mmHg 69%
    04:00 +8°C° 0 mm 2 mps 760 mmHg 69%
    05:00 +9°C° 0 mm 3 mps 759 mmHg 70%
    06:00 +9°C° 0 mm 3 mps 759 mmHg 71%
    07:00 +11°C° 0 mm 4 mps 759 mmHg 66%
    08:00 +13°C° 0 mm 4 mps 759 mmHg 61%
    09:00 +15°C° 0 mm 5 mps 759 mmHg 56%
    10:00 +16°C° 0 mm 6 mps 758 mmHg 55%
    11:00 +19°C° 0 mm 6 mps 758 mmHg 53%
    12:00 +20°C° 0 mm 6 mps 758 mmHg 52%
    13:00 +20°C° 0 mm 6 mps 757 mmHg 52%
    14:00 +21°C° 0 mm 7 mps 757 mmHg 53%
    15:00 +22°C° 0 mm 7 mps 757 mmHg 53%
    16:00 +21°C° 0 mm 6 mps 757 mmHg 57%
    17:00 +21°C° 0 mm 5 mps 756 mmHg 61%
    18:00 +21°C° 0 mm 3 mps 756 mmHg 66%
    19:00 +19°C° 0 mm 3 mps 756 mmHg 70%
    20:00 +17°C° 0 mm 3 mps 756 mmHg 74%
    21:00 +15°C° 0 mm 2 mps 756 mmHg 79%
    22:00 +15°C° 0 mm 2 mps 757 mmHg 80%
    23:00 +14°C° 0 mm 1 mps 757 mmHg 81%
    Show more